Time,TemperatureF,DewpointF,PressureIn,WindDirection,WindDirectionDegrees,WindSpeedMPH,WindSpeedGustMPH,Humidity,HourlyPrecipIn,Conditions,Clouds,dailyrainin,SoftwareType,DateUTC
2013-01-12 00:04:00,41.7,25.4,30.06,NNE,19,0.0,0.0,52,0.00,,,0.00,Wunderground v.1.15,2013-01-12 08:04:00,
2013-01-12 00:14:00,43.1,24.7,30.06,NNE,12,1.0,4.0,48,0.00,,,0.00,Wunderground v.1.15,2013-01-12 08:14:00,
2013-01-12 00:24:00,43.6,24.7,30.06,NNE,29,1.0,1.0,47,0.00,,,0.00,Wunderground v.1.15,2013-01-12 08:24:00,
2013-01-12 00:34:00,43.6,24.7,30.07,NNE,18,1.0,1.0,47,0.00,,,0.00,Wunderground v.1.15,2013-01-12 08:34:00,
2013-01-12 00:44:00,43.4,24.5,30.07,NNE,22,0.0,0.0,47,0.00,,,0.00,Wunderground v.1.15,2013-01-12 08:44:00,
2013-01-12 00:54:00,43.2,24.3,30.07,NE,48,0.0,0.0,47,0.00,,,0.00,Wunderground v.1.15,2013-01-12 08:54:00,
2013-01-12 01:04:00,40.4,26.8,30.07,East,97,0.0,0.0,58,0.00,,,0.00,Wunderground v.1.15,2013-01-12 09:04:00,
2013-01-12 01:14:00,37.2,27.2,30.07,ESE,115,0.0,0.0,67,0.00,,,0.00,Wunderground v.1.15,2013-01-12 09:14:00,
2013-01-12 01:24:00,36.7,27.1,30.07,ESE,115,0.0,0.0,68,0.00,,,0.00,Wunderground v.1.15,2013-01-12 09:24:00,
2013-01-12 01:34:00,37.5,27.2,30.06,ESE,108,0.0,0.0,66,0.00,,,0.00,Wunderground v.1.15,2013-01-12 09:34:00,
2013-01-12 01:44:00,37.8,26.7,30.06,East,88,0.0,0.0,64,0.00,,,0.00,Wunderground v.1.15,2013-01-12 09:44:00,
2013-01-12 01:54:00,38.1,26.6,30.06,East,88,0.0,0.0,63,0.00,,,0.00,Wunderground v.1.15,2013-01-12 09:54:00,
2013-01-12 02:04:00,38.8,26.1,30.06,East,88,0.0,0.0,60,0.00,,,0.00,Wunderground v.1.15,2013-01-12 10:04:00,
2013-01-12 02:14:00,39.5,26.8,30.06,East,88,0.0,0.0,60,0.00,,,0.00,Wunderground v.1.15,2013-01-12 10:14:00,
2013-01-12 02:24:00,39.4,27.5,30.07,East,88,0.0,0.0,62,0.00,,,0.00,Wunderground v.1.15,2013-01-12 10:24:00,
2013-01-12 02:34:00,39.3,27.7,30.07,East,88,0.0,0.0,63,0.00,,,0.00,Wunderground v.1.15,2013-01-12 10:34:00,
2013-01-12 02:44:00,39.0,27.8,30.07,East,88,0.0,0.0,64,0.00,,,0.00,Wunderground v.1.15,2013-01-12 10:44:00,
2013-01-12 02:54:00,38.4,27.7,30.06,East,88,0.0,0.0,65,0.00,,,0.00,Wunderground v.1.15,2013-01-12 10:54:00,
2013-01-12 03:04:00,38.4,28.0,30.06,East,88,0.0,0.0,66,0.00,,,0.00,Wunderground v.1.15,2013-01-12 11:04:00,
2013-01-12 03:14:00,39.1,27.9,30.06,East,88,0.0,0.0,64,0.00,,,0.00,Wunderground v.1.15,2013-01-12 11:14:00,
2013-01-12 03:24:00,39.1,27.9,30.06,East,88,0.0,0.0,64,0.00,,,0.00,Wunderground v.1.15,2013-01-12 11:24:00,
2013-01-12 03:34:00,37.7,28.1,30.06,ESE,118,0.0,0.0,68,0.00,,,0.00,Wunderground v.1.15,2013-01-12 11:34:00,
2013-01-12 03:44:00,38.4,26.5,30.06,NE,55,0.0,0.0,62,0.00,,,0.00,Wunderground v.1.15,2013-01-12 11:44:00,
2013-01-12 03:54:00,39.8,27.4,30.06,NE,55,0.0,0.0,61,0.00,,,0.00,Wunderground v.1.15,2013-01-12 11:54:00,
2013-01-12 04:04:00,39.2,27.3,30.06,NE,55,0.0,0.0,62,0.00,,,0.00,Wunderground v.1.15,2013-01-12 12:04:00,
2013-01-12 04:14:00,38.4,27.3,30.06,NE,55,0.0,0.0,64,0.00,,,0.00,Wunderground v.1.15,2013-01-12 12:14:00,
2013-01-12 04:24:00,36.6,27.4,30.06,East,93,0.0,0.0,69,0.00,,,0.00,Wunderground v.1.15,2013-01-12 12:24:00,
2013-01-12 04:34:00,35.7,27.2,30.06,East,93,0.0,0.0,71,0.00,,,0.00,Wunderground v.1.15,2013-01-12 12:34:00,
2013-01-12 04:44:00,35.4,26.9,30.05,East,93,0.0,0.0,71,0.00,,,0.00,Wunderground v.1.15,2013-01-12 12:44:00,
2013-01-12 04:54:00,35.3,26.8,30.06,East,93,0.0,0.0,71,0.00,,,0.00,Wunderground v.1.15,2013-01-12 12:54:00,
2013-01-12 05:04:00,35.5,26.7,30.06,East,93,0.0,0.0,70,0.00,,,0.00,Wunderground v.1.15,2013-01-12 13:04:00,
2013-01-12 05:14:00,36.1,25.5,30.07,East,93,0.0,0.0,65,0.00,,,0.00,Wunderground v.1.15,2013-01-12 13:14:00,
2013-01-12 05:24:00,37.6,25.4,30.07,East,93,0.0,0.0,61,0.00,,,0.00,Wunderground v.1.15,2013-01-12 13:24:00,
2013-01-12 05:34:00,37.6,25.4,30.07,East,93,0.0,0.0,61,0.00,,,0.00,Wunderground v.1.15,2013-01-12 13:34:00,
2013-01-12 05:44:00,36.8,25.4,30.08,East,93,0.0,0.0,63,0.00,,,0.00,Wunderground v.1.15,2013-01-12 13:44:00,
2013-01-12 05:54:00,36.0,25.4,30.08,East,93,0.0,0.0,65,0.00,,,0.00,Wunderground v.1.15,2013-01-12 13:54:00,
2013-01-12 06:04:00,35.4,25.9,30.08,East,93,0.0,0.0,68,0.00,,,0.00,Wunderground v.1.15,2013-01-12 14:04:00,
2013-01-12 06:14:00,34.4,26.3,30.09,East,93,0.0,0.0,72,0.00,,,0.00,Wunderground v.1.15,2013-01-12 14:14:00,
2013-01-12 06:24:00,33.6,25.9,30.09,East,96,0.0,0.0,73,0.00,,,0.00,Wunderground v.1.15,2013-01-12 14:24:00,
2013-01-12 06:34:00,33.9,25.5,30.09,ESE,105,0.0,0.0,71,0.00,,,0.00,Wunderground v.1.15,2013-01-12 14:34:00,
2013-01-12 06:44:00,35.3,24.7,30.10,ENE,68,0.0,0.0,65,0.00,,,0.00,Wunderground v.1.15,2013-01-12 14:44:00,
2013-01-12 06:54:00,36.1,24.7,30.10,ENE,70,0.0,0.0,63,0.00,,,0.00,Wunderground v.1.15,2013-01-12 14:54:00,
2013-01-12 07:04:00,35.2,25.0,30.11,ENE,70,0.0,0.0,66,0.00,,,0.00,Wunderground v.1.15,2013-01-12 15:04:00,
2013-01-12 07:14:00,35.0,25.9,30.11,ENE,70,0.0,0.0,69,0.00,,,0.00,Wunderground v.1.15,2013-01-12 15:14:00,
2013-01-12 07:24:00,35.4,25.5,30.11,East,99,0.0,0.0,67,0.00,,,0.00,Wunderground v.1.15,2013-01-12 15:24:00,
2013-01-12 07:34:00,36.6,25.9,30.11,East,99,0.0,0.0,65,0.00,,,0.00,Wunderground v.1.15,2013-01-12 15:34:00,
2013-01-12 07:44:00,37.2,26.1,30.12,East,99,0.0,0.0,64,0.00,,,0.00,Wunderground v.1.15,2013-01-12 15:44:00,
2013-01-12 07:54:00,37.9,25.6,30.12,East,99,0.0,0.0,61,0.00,,,0.00,Wunderground v.1.15,2013-01-12 15:54:00,
2013-01-12 08:04:00,39.6,27.2,30.12,East,99,0.0,0.0,61,0.00,,,0.00,Wunderground v.1.15,2013-01-12 16:04:00,
2013-01-12 08:14:00,41.3,27.2,30.13,East,99,0.0,0.0,57,0.00,,,0.00,Wunderground v.1.15,2013-01-12 16:14:00,
2013-01-12 08:24:00,43.0,26.6,30.13,East,99,0.0,0.0,52,0.00,,,0.00,Wunderground v.1.15,2013-01-12 16:24:00,
2013-01-12 08:34:00,44.2,27.2,30.14,East,99,0.0,0.0,51,0.00,,,0.00,Wunderground v.1.15,2013-01-12 16:34:00,
2013-01-12 08:44:00,45.3,28.7,30.14,East,99,0.0,0.0,52,0.00,,,0.00,Wunderground v.1.15,2013-01-12 16:44:00,
2013-01-12 08:54:00,46.3,27.2,30.14,East,99,0.0,0.0,47,0.00,,,0.00,Wunderground v.1.15,2013-01-12 16:54:00,
2013-01-12 09:04:00,48.1,26.6,30.14,East,99,0.0,0.0,43,0.00,,,0.00,Wunderground v.1.15,2013-01-12 17:04:00,
2013-01-12 09:14:00,48.6,25.3,30.14,East,100,0.0,0.0,40,0.00,,,0.00,Wunderground v.1.15,2013-01-12 17:14:00,
2013-01-12 09:24:00,48.9,24.4,30.14,East,99,0.0,0.0,38,0.00,,,0.00,Wunderground v.1.15,2013-01-12 17:24:00,
2013-01-12 09:34:00,49.5,22.3,30.14,East,99,0.0,0.0,34,0.00,,,0.00,Wunderground v.1.15,2013-01-12 17:34:00,
2013-01-12 09:44:00,50.4,23.7,30.14,East,99,0.0,0.0,35,0.00,,,0.00,Wunderground v.1.15,2013-01-12 17:44:00,
2013-01-12 09:54:00,50.6,23.9,30.15,SW,227,0.0,0.0,35,0.00,,,0.00,Wunderground v.1.15,2013-01-12 17:54:00,
2013-01-12 10:04:00,49.7,23.8,30.15,West,279,2.0,2.0,36,0.00,,,0.00,Wunderground v.1.15,2013-01-12 18:04:00,
2013-01-12 10:14:00,49.5,23.6,30.14,West,279,1.0,1.0,36,0.00,,,0.00,Wunderground v.1.15,2013-01-12 18:14:00,
2013-01-12 10:24:00,49.8,24.5,30.15,WNW,285,1.0,2.0,37,0.00,,,0.00,Wunderground v.1.15,2013-01-12 18:24:00,
2013-01-12 10:34:00,49.9,26.5,30.14,WSW,248,2.0,2.0,40,0.00,,,0.00,Wunderground v.1.15,2013-01-12 18:34:00,
2013-01-12 10:44:00,50.0,25.4,30.14,WNW,283,2.0,2.0,38,0.00,,,0.00,Wunderground v.1.15,2013-01-12 18:44:00,
2013-01-12 10:54:00,49.7,25.7,30.14,NW,304,2.0,2.0,39,0.00,,,0.00,Wunderground v.1.15,2013-01-12 18:54:00,
2013-01-12 11:04:00,50.3,25.0,30.14,NW,305,0.0,0.0,37,0.00,,,0.00,Wunderground v.1.15,2013-01-12 19:04:00,
2013-01-12 11:14:00,50.1,24.2,30.13,NW,313,1.0,1.0,36,0.00,,,0.00,Wunderground v.1.15,2013-01-12 19:14:00,
2013-01-12 11:24:00,50.2,22.2,30.13,WSW,244,1.0,1.0,33,0.00,,,0.00,Wunderground v.1.15,2013-01-12 19:24:00,
2013-01-12 11:34:00,50.8,25.4,30.12,SW,230,1.0,1.0,37,0.00,,,0.00,Wunderground v.1.15,2013-01-12 19:34:00,
2013-01-12 11:44:00,50.7,25.3,30.11,WNW,283,1.0,1.0,37,0.00,,,0.00,Wunderground v.1.15,2013-01-12 19:44:00,
2013-01-12 11:54:00,50.7,24.7,30.11,West,269,1.0,1.0,36,0.00,,,0.00,Wunderground v.1.15,2013-01-12 19:54:00,
2013-01-12 12:04:00,51.0,27.5,30.11,SW,214,1.0,1.0,40,0.00,,,0.00,Wunderground v.1.15,2013-01-12 20:04:00,
2013-01-12 12:14:00,51.0,29.3,30.11,West,279,2.0,7.0,43,0.00,,,0.00,Wunderground v.1.15,2013-01-12 20:14:00,
2013-01-12 12:24:00,51.3,30.7,30.10,West,267,4.0,6.0,45,0.00,,,0.00,Wunderground v.1.15,2013-01-12 20:24:00,
2013-01-12 12:34:00,50.5,32.0,30.10,WNW,286,5.0,5.0,49,0.00,,,0.00,Wunderground v.1.15,2013-01-12 20:34:00,
2013-01-12 12:44:00,50.9,32.4,30.10,West,269,4.0,7.0,49,0.00,,,0.00,Wunderground v.1.15,2013-01-12 20:44:00,
2013-01-12 12:54:00,50.5,32.0,30.09,WNW,293,5.0,14.0,49,0.00,,,0.00,Wunderground v.1.15,2013-01-12 20:54:00,
2013-01-12 13:04:00,50.6,32.1,30.09,West,281,4.0,4.0,49,0.00,,,0.00,Wunderground v.1.15,2013-01-12 21:04:00,
2013-01-12 13:14:00,51.0,30.4,30.09,SW,233,3.0,3.0,45,0.00,,,0.00,Wunderground v.1.15,2013-01-12 21:14:00,
2013-01-12 13:24:00,52.1,30.3,30.09,West,279,1.0,1.0,43,0.00,,,0.00,Wunderground v.1.15,2013-01-12 21:24:00,
2013-01-12 13:34:00,51.8,30.0,30.09,WSW,246,2.0,3.0,43,0.00,,,0.00,Wunderground v.1.15,2013-01-12 21:34:00,
2013-01-12 13:44:00,51.6,29.8,30.09,WNW,283,1.0,1.0,43,0.00,,,0.00,Wunderground v.1.15,2013-01-12 21:44:00,
2013-01-12 13:54:00,52.0,29.0,30.09,WNW,287,1.0,1.0,41,0.00,,,0.00,Wunderground v.1.15,2013-01-12 21:54:00,
2013-01-12 14:04:00,52.3,32.1,30.09,West,264,1.0,4.0,46,0.00,,,0.00,Wunderground v.1.15,2013-01-12 22:04:00,
2013-01-12 14:14:00,52.2,31.5,30.09,West,259,1.0,1.0,45,0.00,,,0.00,Wunderground v.1.15,2013-01-12 22:14:00,
2013-01-12 14:24:00,52.1,31.9,30.08,WSW,258,1.0,1.0,46,0.00,,,0.00,Wunderground v.1.15,2013-01-12 22:24:00,
2013-01-12 14:34:00,52.0,30.2,30.09,West,265,3.0,7.0,43,0.00,,,0.00,Wunderground v.1.15,2013-01-12 22:34:00,
2013-01-12 14:44:00,51.6,29.8,30.09,NW,314,3.0,4.0,43,0.00,,,0.00,Wunderground v.1.15,2013-01-12 22:44:00,
2013-01-12 14:54:00,52.1,30.8,30.08,WSW,251,2.0,2.0,44,0.00,,,0.00,Wunderground v.1.15,2013-01-12 22:54:00,
2013-01-12 15:04:00,51.7,31.0,30.09,WSW,252,2.0,6.0,45,0.00,,,0.00,Wunderground v.1.15,2013-01-12 23:04:00,
2013-01-12 15:14:00,51.7,31.0,30.08,WSW,254,3.0,3.0,45,0.00,,,0.00,Wunderground v.1.15,2013-01-12 23:14:00,
2013-01-12 15:24:00,51.9,31.7,30.08,WSW,258,2.0,2.0,46,0.00,,,0.00,Wunderground v.1.15,2013-01-12 23:24:00,
2013-01-12 15:34:00,51.6,30.9,30.08,WNW,286,2.0,2.0,45,0.00,,,0.00,Wunderground v.1.15,2013-01-12 23:34:00,
2013-01-12 15:44:00,51.3,31.7,30.08,West,281,2.0,2.0,47,0.00,,,0.00,Wunderground v.1.15,2013-01-12 23:44:00,
2013-01-12 15:54:00,51.3,32.8,30.08,West,280,2.0,2.0,49,0.00,,,0.00,Wunderground v.1.15,2013-01-12 23:54:00,
2013-01-12 16:04:00,51.5,33.5,30.08,WNW,284,1.0,1.0,50,0.00,,,0.00,Wunderground v.1.15,2013-01-13 00:04:00,
2013-01-12 16:14:00,51.1,34.1,30.08,SSW,192,0.0,0.0,52,0.00,,,0.00,Wunderground v.1.15,2013-01-13 00:14:00,
2013-01-12 16:24:00,50.7,33.2,30.09,WSW,249,1.0,1.0,51,0.00,,,0.00,Wunderground v.1.15,2013-01-13 00:24:00,
2013-01-12 16:34:00,50.8,33.8,30.08,WNW,287,0.0,0.0,52,0.00,,,0.00,Wunderground v.1.15,2013-01-13 00:34:00,
2013-01-12 16:44:00,50.4,33.9,30.09,WNW,294,0.0,0.0,53,0.00,,,0.00,Wunderground v.1.15,2013-01-13 00:44:00,
2013-01-12 16:54:00,50.0,34.0,30.09,SW,234,0.0,0.0,54,0.00,,,0.00,Wunderground v.1.15,2013-01-13 00:54:00,
2013-01-12 17:04:00,49.2,33.7,30.09,WSW,254,0.0,0.0,55,0.00,,,0.00,Wunderground v.1.15,2013-01-13 01:04:00,
2013-01-12 17:14:00,48.8,34.7,30.08,WSW,254,0.0,0.0,58,0.00,,,0.00,Wunderground v.1.15,2013-01-13 01:14:00,
2013-01-12 17:24:00,48.4,34.7,30.09,WSW,254,0.0,0.0,59,0.00,,,0.00,Wunderground v.1.15,2013-01-13 01:24:00,
2013-01-12 17:34:00,48.1,34.9,30.09,WSW,254,0.0,0.0,60,0.00,,,0.00,Wunderground v.1.15,2013-01-13 01:34:00,
2013-01-12 17:44:00,48.0,35.6,30.09,WSW,254,0.0,0.0,62,0.00,,,0.00,Wunderground v.1.15,2013-01-13 01:44:00,
2013-01-12 17:54:00,47.4,35.0,30.09,WSW,254,0.0,0.0,62,0.00,,,0.00,Wunderground v.1.15,2013-01-13 01:54:00,
2013-01-12 18:04:00,46.8,35.3,30.09,WSW,254,0.0,0.0,64,0.00,,,0.00,Wunderground v.1.15,2013-01-13 02:04:00,
2013-01-12 18:14:00,46.2,35.5,30.09,WSW,254,0.0,0.0,66,0.00,,,0.00,Wunderground v.1.15,2013-01-13 02:14:00,
2013-01-12 18:24:00,45.6,35.3,30.09,WSW,254,0.0,0.0,67,0.00,,,0.00,Wunderground v.1.15,2013-01-13 02:24:00,
2013-01-12 18:34:00,45.6,35.3,30.09,WSW,254,0.0,0.0,67,0.00,,,0.00,Wunderground v.1.15,2013-01-13 02:34:00,
2013-01-12 18:44:00,45.2,34.5,30.09,WSW,254,0.0,0.0,66,0.00,,,0.00,Wunderground v.1.15,2013-01-13 02:44:00,
2013-01-12 18:54:00,45.3,34.2,30.09,ESE,119,0.0,0.0,65,0.00,,,0.00,Wunderground v.1.15,2013-01-13 02:54:00,
2013-01-12 19:04:00,45.1,34.0,30.09,ESE,119,0.0,0.0,65,0.00,,,0.00,Wunderground v.1.15,2013-01-13 03:04:00,
2013-01-12 19:14:00,44.8,34.1,30.10,ESE,119,0.0,0.0,66,0.00,,,0.00,Wunderground v.1.15,2013-01-13 03:14:00,
2013-01-12 19:24:00,44.0,34.1,30.09,ESE,119,0.0,0.0,68,0.00,,,0.00,Wunderground v.1.15,2013-01-13 03:24:00,
2013-01-12 19:34:00,43.5,34.0,30.09,ESE,119,0.0,0.0,69,0.00,,,0.00,Wunderground v.1.15,2013-01-13 03:34:00,
2013-01-12 19:44:00,43.3,33.8,30.09,ESE,119,0.0,0.0,69,0.00,,,0.00,Wunderground v.1.15,2013-01-13 03:44:00,
2013-01-12 19:54:00,42.5,33.4,30.09,ESE,119,0.0,0.0,70,0.00,,,0.00,Wunderground v.1.15,2013-01-13 03:54:00,
2013-01-12 20:04:00,42.0,33.3,30.09,ESE,119,0.0,0.0,71,0.00,,,0.00,Wunderground v.1.15,2013-01-13 04:04:00,
2013-01-12 20:14:00,41.6,32.9,30.09,ESE,119,0.0,0.0,71,0.00,,,0.00,Wunderground v.1.15,2013-01-13 04:14:00,
2013-01-12 20:24:00,41.5,32.8,30.10,ESE,119,0.0,0.0,71,0.00,,,0.00,Wunderground v.1.15,2013-01-13 04:24:00,
2013-01-12 20:34:00,41.1,32.8,30.10,ESE,119,0.0,0.0,72,0.00,,,0.00,Wunderground v.1.15,2013-01-13 04:34:00,
2013-01-12 20:44:00,40.9,32.9,30.10,ESE,119,0.0,0.0,73,0.00,,,0.00,Wunderground v.1.15,2013-01-13 04:44:00,
2013-01-12 20:54:00,40.7,32.7,30.10,ESE,119,0.0,0.0,73,0.00,,,0.00,Wunderground v.1.15,2013-01-13 04:54:00,
2013-01-12 21:04:00,40.8,32.1,30.10,ESE,119,0.0,0.0,71,0.00,,,0.00,Wunderground v.1.15,2013-01-13 05:04:00,
2013-01-12 21:14:00,40.6,31.9,30.10,ESE,119,0.0,0.0,71,0.00,,,0.00,Wunderground v.1.15,2013-01-13 05:14:00,
2013-01-12 21:24:00,40.4,31.7,30.10,ESE,119,0.0,0.0,71,0.00,,,0.00,Wunderground v.1.15,2013-01-13 05:24:00,
2013-01-12 21:34:00,40.2,31.9,30.10,ESE,119,0.0,0.0,72,0.00,,,0.00,Wunderground v.1.15,2013-01-13 05:34:00,
2013-01-12 21:44:00,39.9,31.6,30.10,ESE,119,0.0,0.0,72,0.00,,,0.00,Wunderground v.1.15,2013-01-13 05:44:00,
2013-01-12 21:54:00,39.8,31.5,30.10,ESE,119,0.0,0.0,72,0.00,,,0.00,Wunderground v.1.15,2013-01-13 05:54:00,
2013-01-12 22:04:00,39.9,30.9,30.10,ESE,119,0.0,0.0,70,0.00,,,0.00,Wunderground v.1.15,2013-01-13 06:04:00,
2013-01-12 22:14:00,39.8,30.8,30.10,ESE,119,0.0,0.0,70,0.00,,,0.00,Wunderground v.1.15,2013-01-13 06:14:00,
2013-01-12 22:24:00,39.7,30.7,30.10,ESE,119,0.0,0.0,70,0.00,,,0.00,Wunderground v.1.15,2013-01-13 06:24:00,
2013-01-12 22:34:00,39.6,31.0,30.10,ESE,119,0.0,0.0,71,0.00,,,0.00,Wunderground v.1.15,2013-01-13 06:34:00,
2013-01-12 22:44:00,39.3,30.3,30.10,ESE,119,0.0,0.0,70,0.00,,,0.00,Wunderground v.1.15,2013-01-13 06:44:00,
2013-01-12 22:54:00,39.2,29.9,30.10,ESE,119,0.0,0.0,69,0.00,,,0.00,Wunderground v.1.15,2013-01-13 06:54:00,
2013-01-12 23:04:00,40.4,29.6,30.10,ENE,66,0.0,0.0,65,0.00,,,0.00,Wunderground v.1.15,2013-01-13 07:04:00,
2013-01-12 23:14:00,41.5,29.0,30.10,NE,54,0.0,0.0,61,0.00,,,0.00,Wunderground v.1.15,2013-01-13 07:14:00,
2013-01-12 23:24:00,40.6,29.7,30.10,NE,40,0.0,0.0,65,0.00,,,0.00,Wunderground v.1.15,2013-01-13 07:24:00,
2013-01-12 23:34:00,40.1,30.0,30.09,NE,40,0.0,0.0,67,0.00,,,0.00,Wunderground v.1.15,2013-01-13 07:34:00,
2013-01-12 23:44:00,39.6,29.5,30.09,NE,40,0.0,0.0,67,0.00,,,0.00,Wunderground v.1.15,2013-01-13 07:44:00,
2013-01-12 23:54:00,39.2,29.5,30.09,NE,40,0.0,0.0,68,0.00,,,0.00,Wunderground v.1.15,2013-01-13 07:54:00,